[[{"header":{"parameterUnit":"m.s-1","parameterCategory":1,"la1":30.2991,"la2":30.254,"lo1":-89.0895,"lo2":-89.0444,"dy":0.0017,"dx":0.0017,"nx":28,"ny":28,"refTime":"2025-08-22T09:00:00:Z","depth":0,"parameterNumber":2,"parameterNumberName":"U-component_of_WINDS"},"data":[0,0,0,0,0,0,0,0,0,0,0,0,0,0,0,0,0,0,0,0,0,0,0,0,0,0,0,0,0,0,0,0,0,0,0,0,0,0,0,0,0,0,0,0,0,0,0,0,0,0,0,0,0,0,0,0,0,0,0.6013,0.6013,0,0.6093,0.6094,0.6095,0.6116,0.6116,0.6115,0.6115,0.6201,0.6204,0.6207,0,0,0,0,0,0,0,0,0,0,0,0,0,0.5882,0.5884,0.6012,0.6013,0.6014,0.6093,0.6094,0.6095,0.6116,0.6116,0.6115,0.6115,0.62,0.6204,0.6207,0,0,0,0,0,0,0,0,0,0,0,0,0,0.5948,0.5885,0.6012,0.6035,0.6037,0.6093,0.6094,0.6095,0.6117,0.6116,0.6115,0.6114,0.6199,0.6203,0.6207,0.6247,0,0,0.622,0.6222,0,0,0,0,0,0,0,0,0.5944,0.5953,0.603,0.6033,0.6036,0.6094,0.6079,0.6146,0.6117,0.6087,0.6115,0.6114,0.6166,0.6173,0.619,0.6251,0.6255,0.622,0.6223,0.6225,0.6226,0,0,0,0,0,0,0,0.594,0.595,0.6044,0.6031,0.6035,0.6042,0.605,0.6092,0.613,0.6089,0.6091,0.61,0.6168,0.6186,0.6192,0.6256,0.622,0.6224,0.6226,0.6228,0.6356,0.6357,0,0,0,0,0,0,0.5931,0.5946,0.6042,0.6047,0.5987,0.6045,0.6054,0.6076,0.6129,0.6137,0.61,0.6101,0.6179,0.6187,0.6195,0.6246,0.6225,0.6228,0.6231,0.6355,0.6356,0.6357,0,0,0,0,0,0,0.5928,0.5939,0.6039,0.5997,0.601,0.6048,0.6072,0.6078,0.6096,0.6138,0.6145,0.6112,0.6179,0.6189,0.6234,0.625,0.623,0.6234,0.6354,0.6356,0.6357,0.6348,0,0,0,0,0,0,0.5924,0.5938,0.5952,0.5997,0.6012,0.6075,0.6073,0.608,0.6103,0.6104,0.615,0.6157,0.6179,0.6228,0.6238,0.6255,0.6237,0.6353,0.6355,0.6356,0.6347,0.6349,0.6351,0,0,0,0,0,0.5919,0.5947,0.5953,0.5965,0.6031,0.6076,0.6085,0.6108,0.6104,0.612,0.6146,0.6156,0.6246,0.6232,0.6244,0.6262,0.6352,0.6354,0.6356,0.6347,0.6349,0.6351,0,0,0,0,0,0,0.5905,0.5954,0.596,0.6004,0.6035,0.6079,0.61,0.611,0.6144,0.6144,0.6173,0.6183,0.6226,0.6249,0.6233,0.6304,0.6299,0.6304,0.6288,0.629,0.6292,0.6286,0.6241,0,0,0,0,0,0.5907,0.5938,0.5979,0.6013,0.6029,0.6061,0.6082,0.6097,0.6132,0.6146,0.6176,0.621,0.6246,0.627,0.6305,0.6351,0.6362,0.6369,0.6371,0.6372,0.6376,0.6402,0.6406,0.6364,0.6364,0.6364,0,0,0.5911,0.5941,0.596,0.6011,0.6038,0.6071,0.6073,0.6107,0.6133,0.6151,0.6195,0.6219,0.6259,0.6304,0.6326,0.6325,0.639,0.6375,0.6375,0.6378,0.6405,0.6409,0.6412,0.6366,0.6365,0.6365,0,0,0.5936,0.5961,0.5993,0.6019,0.6059,0.608,0.6088,0.613,0.6146,0.6191,0.6206,0.6237,0.6298,0.6326,0.6349,0.6385,0.6395,0.6396,0.6405,0.643,0.6433,0.6437,0.645,0.6454,0.6399,0.6399,0.6399,0,0.5936,0.5985,0.6008,0.6042,0.6065,0.6083,0.6116,0.614,0.619,0.6206,0.6204,0.6281,0.631,0.6362,0.6371,0.6388,0.6399,0.6391,0.6431,0.6434,0.6438,0.6451,0.6456,0.6399,0.6399,0.6399,0.6399,0,0.5984,0.6018,0.6039,0.6085,0.6111,0.6144,0.6174,0.6197,0.621,0.6232,0.6278,0.6312,0.6356,0.6369,0.6383,0.6424,0.6422,0.6425,0.642,0.6441,0.6454,0.6459,0.6399,0.6399,0.6399,0.6399,0,0,0.6002,0.6061,0.6068,0.609,0.6135,0.6162,0.6197,0.6238,0.6257,0.6291,0.6322,0.6374,0.6377,0.6402,0.6419,0.6442,0.6469,0.6442,0.6443,0.6446,0.6517,0.6515,0.652,0.6475,0.6476,0.6477,0.6514,0,0.6033,0.6094,0.6116,0.6167,0.6199,0.6217,0.6247,0.6279,0.6301,0.6332,0.6357,0.6394,0.6394,0.641,0.6433,0.646,0.6483,0.6458,0.6505,0.6507,0.6495,0.6527,0.6524,0.6557,0.6519,0.652,0.652,0,0.6077,0.611,0.6164,0.6205,0.622,0.6246,0.6286,0.6316,0.6352,0.6367,0.6395,0.6411,0.6449,0.6442,0.6496,0.6479,0.65,0.6516,0.6518,0.6524,0.6515,0.6534,0.6568,0.6573,0.6528,0.6528,0.6527,0,0.6085,0.6143,0.6183,0.6201,0.625,0.6269,0.629,0.6326,0.635,0.6385,0.6401,0.644,0.6462,0.6493,0.652,0.6512,0.6572,0.6567,0.6586,0.6585,0.6598,0.6597,0.6636,0.6611,0.661,0.661,0.661,0,0.6117,0.6149,0.6187,0.6212,0.6249,0.6275,0.6312,0.6335,0.6367,0.6397,0.6415,0.6443,0.6476,0.6509,0.653,0.6572,0.6582,0.6596,0.6601,0.6594,0.6593,0.6609,0.6607,0.6612,0.6611,0.6611,0.6611,0,0.6132,0.6159,0.6204,0.6247,0.6258,0.6284,0.6321,0.6347,0.6369,0.6407,0.6418,0.6454,0.6494,0.6523,0.6575,0.6589,0.6634,0.664,0.6621,0.6624,0.6642,0.664,0.6693,0.6702,0.667,0.667,0.667,0,0.6151,0.6176,0.6222,0.6243,0.6264,0.6298,0.6321,0.6348,0.6373,0.6417,0.6437,0.6478,0.6512,0.6575,0.6607,0.6647,0.6653,0.6669,0.6659,0.6652,0.6654,0.6652,0.6655,0.6671,0.6671,0.6671,0.6671,0,0.6182,0.6194,0.6227,0.6264,0.6292,0.6323,0.6355,0.6372,0.6405,0.6431,0.6471,0.6498,0.655,0.6591,0.6634,0.6658,0.6671,0.6674,0.6681,0.6674,0.6663,0.6669,0.6626,0.6673,0.6673,0.6672,0.6672,0.6672,0.62,0.6223,0.6259,0.6295,0.6322,0.6351,0.6377,0.6403,0.6436,0.648,0.6495,0.6536,0.6574,0.6633,0.6657,0.6691,0.6691,0.67,0.6703,0.6705,0.6705,0.6657,0.6699,0.6699,0.6699,0.6699,0.6699,0,0.6232,0.6256,0.6289,0.6332,0.6361,0.6369,0.6405,0.6429,0.6465,0.6498,0.6531,0.6578,0.6617,0.6652,0.6694,0.6714,0.6721,0.6724,0.6723,0.6729,0.6702,0.6692,0.6718,0.6718,0.6718,0.6718,0.6718,0.6718,0.6252,0.6292,0.6308,0.6362,0.6386,0.6426,0.6446,0.6474,0.65,0.6551,0.6584,0.6606,0.664,0.6684,0.6721,0.6731,0.6745,0.6747,0.6758,0.6733,0.6731,0.6728,0.6719,0.675,0.675,0.6782,0.6782,0.6782]},{"header":{"parameterUnit":"m.s-1","parameterCategory":1,"la1":30.2991,"la2":30.254,"lo1":-89.0895,"lo2":-89.0444,"dy":0.0017,"dx":0.0017,"nx":28,"ny":28,"refTime":"2025-08-22T09:00:00:Z","depth":0,"parameterNumber":3,"parameterNumberName":"V-component_of_WINDS"},"data":[0,0,0,0,0,0,0,0,0,0,0,0,0,0,0,0,0,0,0,0,0,0,0,0,0,0,0,0,0,0,0,0,0,0,0,0,0,0,0,0,0,0,0,0,0,0,0,0,0,0,0,0,0,0,0,0,0,0,1.2947,1.2949,0,1.3073,1.3074,1.3075,1.3101,1.3101,1.31,1.3099,1.3224,1.3228,1.3232,0,0,0,0,0,0,0,0,0,0,0,0,0,1.2723,1.2727,1.2947,1.2949,1.295,1.3072,1.3074,1.3076,1.3102,1.31,1.3099,1.3098,1.3222,1.3227,1.3232,0,0,0,0,0,0,0,0,0,0,0,0,0,1.2831,1.2728,1.2947,1.2978,1.2982,1.3072,1.3074,1.3076,1.3102,1.31,1.3099,1.3098,1.3221,1.3227,1.3233,1.33,0,0,1.3252,1.3255,0,0,0,0,0,0,0,0,1.2825,1.284,1.2972,1.2976,1.2981,1.307,1.3041,1.3151,1.3102,1.3056,1.3099,1.3097,1.3173,1.3184,1.321,1.3306,1.3311,1.3253,1.3257,1.3259,1.3261,0,0,0,0,0,0,0,1.2818,1.2834,1.2997,1.2974,1.2979,1.2983,1.2997,1.3062,1.3121,1.306,1.3062,1.3077,1.3176,1.3204,1.3213,1.3313,1.3253,1.3258,1.3262,1.3265,1.3464,1.3466,0,0,0,0,0,0,1.2805,1.2828,1.2993,1.3,1.2898,1.2988,1.3004,1.3043,1.312,1.3131,1.3078,1.3078,1.3194,1.3206,1.3218,1.3298,1.3259,1.3265,1.3269,1.3463,1.3464,1.3466,0,0,0,0,0,0,1.2801,1.282,1.2988,1.2915,1.2937,1.2994,1.3037,1.3046,1.3074,1.3134,1.3144,1.3097,1.3193,1.3209,1.3278,1.3303,1.3268,1.3274,1.3461,1.3463,1.3465,1.3461,0,0,0,0,0,0,1.2794,1.2818,1.2846,1.2915,1.294,1.3048,1.3039,1.3049,1.3086,1.3086,1.3154,1.3164,1.3193,1.3269,1.3285,1.3311,1.3279,1.3459,1.3462,1.3465,1.3459,1.3463,1.3466,0,0,0,0,0,1.2786,1.284,1.2847,1.2867,1.2977,1.305,1.3064,1.3098,1.3088,1.3115,1.3152,1.3162,1.3297,1.3276,1.3294,1.3322,1.3457,1.3461,1.3464,1.3458,1.3462,1.3466,0,0,0,0,0,0,1.2773,1.285,1.2859,1.2938,1.2987,1.3054,1.309,1.3102,1.3155,1.3153,1.3191,1.3206,1.3272,1.3304,1.3279,1.3388,1.3377,1.3384,1.3365,1.337,1.3373,1.3364,1.3284,0,0,0,0,0,1.2779,1.2833,1.2897,1.296,1.2985,1.3033,1.3066,1.3087,1.3139,1.316,1.3203,1.3252,1.3305,1.3339,1.3392,1.3464,1.3477,1.3492,1.3495,1.3497,1.3503,1.3539,1.3545,1.3477,1.3477,1.3477,0,0,1.2792,1.2841,1.2874,1.2959,1.3,1.3053,1.305,1.3108,1.3146,1.3169,1.3236,1.3269,1.3325,1.3395,1.3428,1.3424,1.3524,1.3502,1.3503,1.3508,1.3543,1.3549,1.3555,1.348,1.3479,1.3479,0,0,1.2844,1.2888,1.2943,1.2983,1.3044,1.3075,1.3088,1.3153,1.3175,1.3244,1.326,1.3305,1.3398,1.3436,1.3468,1.3528,1.3537,1.3543,1.3561,1.3596,1.3601,1.3606,1.3625,1.3631,1.3549,1.3549,1.3549,0,1.2853,1.2935,1.297,1.3026,1.3061,1.3082,1.3137,1.3174,1.3248,1.3271,1.3265,1.3378,1.3418,1.3495,1.3509,1.3535,1.3548,1.3536,1.3598,1.3603,1.3608,1.3626,1.3633,1.3549,1.3549,1.3549,1.3549,0,1.2941,1.2997,1.3035,1.3106,1.3145,1.32,1.324,1.3275,1.3291,1.3322,1.3389,1.3437,1.3497,1.3517,1.3534,1.3595,1.359,1.3591,1.3579,1.3614,1.3632,1.3639,1.3549,1.3549,1.3549,1.3549,0,0,1.2991,1.3077,1.309,1.3121,1.3188,1.3231,1.3284,1.3344,1.3372,1.3421,1.3465,1.354,1.3539,1.3575,1.3596,1.3626,1.3666,1.3622,1.3624,1.3627,1.3732,1.3731,1.3739,1.3673,1.3674,1.3675,1.3727,0,1.3049,1.3147,1.3177,1.3258,1.3308,1.3327,1.3373,1.3417,1.3446,1.349,1.3521,1.3573,1.357,1.359,1.3621,1.3655,1.3688,1.3652,1.3711,1.3713,1.3696,1.3748,1.3748,1.3795,1.3734,1.3735,1.3736,0,1.3131,1.3181,1.3267,1.3323,1.3345,1.3386,1.3441,1.3484,1.3533,1.3551,1.3588,1.3606,1.3658,1.3643,1.3715,1.369,1.3715,1.3735,1.3737,1.3744,1.3727,1.3754,1.3811,1.3817,1.3748,1.3747,1.3746,0,1.3155,1.3244,1.3306,1.3331,1.34,1.3427,1.3456,1.3504,1.3536,1.3583,1.3603,1.3655,1.3684,1.3722,1.3751,1.3738,1.3819,1.3808,1.3833,1.3832,1.385,1.3848,1.3909,1.3868,1.3868,1.3867,1.3867,0,1.3216,1.3267,1.3317,1.3355,1.3411,1.3444,1.3498,1.3528,1.3569,1.361,1.3629,1.3667,1.3705,1.3747,1.377,1.3823,1.3836,1.385,1.3855,1.3848,1.3846,1.3865,1.3862,1.3869,1.3869,1.3868,1.3868,0,1.3253,1.3289,1.3357,1.3415,1.343,1.3469,1.3517,1.3553,1.358,1.3632,1.3646,1.3689,1.3739,1.3772,1.3837,1.3851,1.3909,1.3914,1.3893,1.3895,1.3918,1.3915,1.3993,1.4004,1.3956,1.3957,1.3957,0,1.329,1.333,1.339,1.342,1.3449,1.3497,1.3529,1.3561,1.3594,1.3649,1.3677,1.3729,1.3772,1.385,1.3885,1.3933,1.3939,1.3962,1.3946,1.3936,1.3936,1.3933,1.3936,1.3965,1.3965,1.3966,1.3966,0,1.335,1.3364,1.3411,1.3463,1.3501,1.3543,1.3585,1.3607,1.3646,1.3681,1.3732,1.3765,1.3829,1.3878,1.3929,1.3956,1.3966,1.397,1.3979,1.3971,1.3956,1.3962,1.3899,1.3969,1.3969,1.3968,1.3968,1.3968,1.3387,1.3421,1.3468,1.3518,1.3553,1.3591,1.3626,1.3657,1.3701,1.3756,1.3771,1.3824,1.3867,1.3935,1.3963,1.4002,1.4,1.4012,1.4015,1.4017,1.4016,1.395,1.4012,1.4012,1.4012,1.4012,1.4012,0,1.3446,1.3476,1.3522,1.3579,1.3617,1.3624,1.3669,1.37,1.3747,1.3786,1.3827,1.3884,1.3931,1.3968,1.4016,1.404,1.4045,1.4051,1.4049,1.4054,1.4017,1.4005,1.4045,1.4045,1.4045,1.4045,1.4045,1.4045,1.3481,1.3538,1.3558,1.3631,1.366,1.3713,1.3737,1.3771,1.3802,1.3865,1.3904,1.3928,1.3966,1.4015,1.4057,1.4067,1.4082,1.4087,1.4097,1.4061,1.4058,1.4054,1.4042,1.409,1.409,1.4131,1.4131,1.4131]}]]